Location: Beccas
(43.4309°N, 0.1528°E)
Time: 14:53:38
(UTC+00:00)

Transit 2A Rocket - Pass Details

Date: 01 June 2022
Orbit: 594 x 907 km, 66.7° (Epoch: 03 July)

Event Time Altitude Azimuth Distance (km) Brightness Sun altitude
Rises 21:18:05 0° 320° (NW) 2,888 9.9 -14.9°
Reaches altitude 10° 21:20:32 10° 311° (NW) 1,955 8.4 -15.2°
Maximum altitude 21:24:25 32° 247° (WSW) 1,020 5.8 -15.6°
Enters shadow 21:27:05 17° 193° (SSW) 1,529 6.2 -15.9°
